Volver al catálogo

COSMOS 839 DEB

ActivoUNKNOWN
NORAD 10453·DEBRIS·🇷🇺 Russia

Lanzado Jul 8, 1976 desde Plesetsk Cosmodrome

Loading…

Próximos Pases (próximas 24 horas)

TLE

ActualizadoSource: Space-Track

Época: Sep 14, 2026, 03:02 UTC

1 10453U 76067AE  26257.12700613 -.00000110  00000-0 -14958-3 0  9995
2 10453  65.8117 147.7061 0727041 273.6756 244.8659 12.42566312274571

Sigue COSMOS 839 DEB en tiempo real con AllMySat

Download on the App Store